India Forums Logo

Bollywood News, Bollywood Movies, Bollywood Chat

India Forums > Forum Index > Bollywood News, Bollywood Movies, Bollywood Chat
News about the Latest Bollywood Movies, Latest Talks in Bollywood find a place in this Section.
<< | 1 | 2 | 3 | 4 | 5 | 6 | 7 | 8 | 9 | 10 | 11 | ... >>
TIDTopic SubjectStart DateLast Entry
965Mira Nair asked to direct Harry Potter 58/30/2004 10:53:03 AM8/30/2004 2:43:41 PM
973'Lucky' in two versions8/30/2004 10:14:10 PM8/30/2004 10:14:10 PM
974Aamir in 'Kunal'?8/30/2004 10:16:41 PM9/1/2004 8:23:31 PM
975STAR POWER AMITABH BACHCHAN8/30/2004 10:17:45 PM8/31/2004 1:39:31 PM
976Dino Morea speaks on 'Rakht'8/30/2004 10:19:06 PM8/31/2004 1:38:39 PM
978Dhoom8/30/2004 10:26:34 PM9/7/2004 5:11:00 AM
982Aamir Khan ties the knot secretly8/31/2004 7:00:05 AM9/2/2004 3:19:43 AM
1038Mira offered fifth Potter movie9/2/2004 3:28:42 PM9/4/2004 11:33:01 AM
1039Empress Ash in Bollystan9/2/2004 4:01:35 PM9/2/2004 4:01:35 PM
1072RAKHT (**1/2)9/4/2004 6:37:17 AM9/4/2004 6:37:17 AM
1073Phir Milenge ( ***1/2)9/4/2004 6:40:22 AM9/7/2004 10:36:40 PM
1113Sonali Kulkarni to act with Omar Sharif!9/6/2004 4:12:57 AM9/6/2004 4:12:57 AM
1114I don't live in la la land - Shah Rukh9/6/2004 4:26:55 AM9/6/2004 4:29:26 AM
1129Aishwarya’s statue @ Tussauds wax museum9/6/2004 1:03:01 PM9/6/2004 5:49:54 PM
1140Preview Hum Kaun Hai?9/7/2004 12:32:39 AM9/7/2004 9:38:19 AM
1141Top 5 Movies of the Week as on Sept 049/7/2004 12:33:57 AM9/7/2004 12:33:57 AM
1142Swades: A Masterpiece in making9/7/2004 12:43:58 AM9/7/2004 12:43:58 AM
1143Shahrukh to appear on CNN9/7/2004 12:44:59 AM9/8/2004 4:17:53 PM
1155Saif-ly ensconced with new live-in?9/7/2004 12:55:55 PM9/7/2004 1:42:35 PM
1221SRK9/9/2004 4:33:07 PM9/11/2004 2:21:51 PM
1230Tumsa Nahin Dekha9/9/2004 11:47:50 PM9/9/2004 11:47:50 PM
1231Top 5 Movies of the Week As on Sept 99/9/2004 11:48:52 PM9/9/2004 11:48:52 PM
1232The King of Bollywood9/9/2004 11:49:55 PM9/9/2004 11:49:55 PM
1233Shahrukh-Farah-Anu once again9/9/2004 11:50:57 PM9/9/2004 11:50:57 PM
1292Review on Dil Ne Jise Apna Kahaa9/11/2004 6:25:05 PM9/11/2004 6:25:05 PM
1293Top 5 Mov of the Week As on Sept 119/11/2004 6:28:53 PM9/12/2004 2:34:46 AM
1294The Princess Diaries 2: Royal Engagement9/11/2004 6:42:36 PM10/23/2004 1:44:33 PM
1295Hollywood Top Movies9/11/2004 6:47:54 PM9/12/2004 5:03:58 PM
1349Salman donates 1.5 crore for AIDS victim9/15/2004 3:29:26 AM9/27/2004 7:09:07 AM
1366Plz jion my group on Yahoo!9/15/2004 10:12:25 PM9/15/2004 10:12:25 PM
1371Mid-Week Top 5 Mov as on sept 169/16/2004 12:45:19 AM9/16/2004 12:45:19 AM
1372Aishwarya gets 3 crores for Lux ad9/16/2004 12:46:48 AM9/16/2004 12:46:48 AM
1373Hrithik's okay to Abbas-Mustan?9/16/2004 12:47:35 AM9/16/2004 12:47:35 AM
1374Hollywood top 10 as on (09/12/04)9/16/2004 12:49:38 AM9/16/2004 12:49:38 AM
1447Top 5 Movies of the Week as on sept 189/19/2004 11:41:21 PM9/19/2004 11:41:21 PM
1449'Veer-Zaara' to capture market9/19/2004 11:44:24 PM9/21/2004 4:23:53 PM
1450Rishi - Dimple back again9/19/2004 11:46:00 PM9/19/2004 11:46:00 PM
1451Karisma's serial popular in Pakistan9/19/2004 11:47:55 PM9/19/2004 11:47:55 PM
1452Salman - Kareena - Rimi teamed9/19/2004 11:49:26 PM9/19/2004 11:49:26 PM
1453'Amitabh And I': A New Book9/19/2004 11:50:14 PM9/19/2004 11:50:14 PM
1454The Village9/19/2004 11:52:13 PM9/23/2004 7:11:44 PM
1455Top Box Office (09/19/04)9/19/2004 11:54:46 PM9/19/2004 11:54:46 PM
1474Madhoshi is a quality product - Priyanshu9/21/2004 3:01:56 AM9/21/2004 3:01:56 AM
1475There is no sexuality in TND-Dia Mirza9/21/2004 3:03:14 AM9/21/2004 3:03:14 AM
1476SRK - Salman combo again?9/21/2004 3:04:21 AM9/23/2004 7:22:26 AM
1477Who'll replace Madhuri?9/21/2004 3:04:51 AM9/23/2004 7:27:54 AM
1499Box office9/21/2004 4:26:38 PM9/21/2004 4:26:38 PM
1540DHOOM9/23/2004 11:09:40 AM9/24/2004 1:16:16 PM
1546'Sorry, Main Shaadi Shuda Hoon'9/23/2004 11:54:56 AM9/24/2004 10:56:58 AM
1547Top 5 Movies of the Week As on Sept 239/23/2004 11:57:25 AM9/24/2004 6:53:11 PM
1550I’m no flighty bird, says Ash9/23/2004 12:20:23 PM9/23/2004 12:20:23 PM
1581Stills from Bride And Prejudice9/24/2004 6:57:48 PM9/26/2004 11:22:52 PM
1582Shwaas: India's entry for Oscars9/24/2004 7:01:03 PM9/24/2004 7:01:03 PM
1583Saif-Amrita unlikely to patch up9/24/2004 7:04:24 PM9/27/2004 5:58:08 AM
1595Fill it out guyz .....9/25/2004 12:09:20 PM10/23/2004 10:02:53 PM
1596Desi Doordarshan9/25/2004 12:29:13 PM10/5/2004 9:15:05 PM
1613bride and prejudice review9/26/2004 11:40:50 PM9/27/2004 5:05:55 PM
1627Stills from Swades9/27/2004 8:07:38 PM10/2/2004 11:40:01 AM
1628Movie Preview on Aitraaz9/27/2004 8:09:52 PM9/27/2004 8:09:52 PM
1629On the sets of Swades9/27/2004 8:12:30 PM9/27/2004 8:12:30 PM
1687Hollywood Top 10 as on 9/26/049/29/2004 7:53:17 PM9/29/2004 7:53:17 PM
1688National Treasure (2004)9/29/2004 7:55:18 PM9/29/2004 7:55:18 PM
1689Leonardo DiCaprio Assault Lawsuit Tossed9/29/2004 7:56:43 PM9/30/2004 1:12:51 PM
1721SRK plays the patriotic jingle9/30/2004 6:16:26 PM9/30/2004 6:16:26 PM
1725Top 5 Movies of the Week as on Sept 309/30/2004 7:50:40 PM9/30/2004 10:39:49 PM
1726Bride and Prejudice : A curtain raiser9/30/2004 7:59:33 PM10/4/2004 7:29:07 AM
1742Popcorn Khao! Mast Ho Jao10/1/2004 12:35:57 PM10/1/2004 12:35:57 PM
1743Aishwarya Rai: The wax wonder!10/1/2004 12:38:33 PM10/5/2004 11:24:54 AM
1768Top 5 Movies of the Week as on oct 210/2/2004 12:33:22 PM10/2/2004 12:33:22 PM
1783Ash at Madame Tussauds!10/3/2004 11:48:22 AM10/4/2004 11:31:15 AM
1857Secretary plans to sue Priyanka10/5/2004 5:25:39 PM10/7/2004 3:56:03 PM
1862~~TEMPTAIONS 2004~~10/5/2004 9:17:16 PM10/11/2004 5:05:41 PM
1910World Premiere of Bride and Prejudice10/7/2004 1:28:16 AM10/19/2004 4:33:38 AM
1926HOT NEW PIX OF VEER ZAARA10/7/2004 11:08:00 AM10/8/2004 9:50:27 PM
1948Top 5 Movies of the Week as on oct 710/7/2004 10:45:51 PM10/7/2004 11:33:10 PM
<< | 1 | 2 | 3 | 4 | 5 | 6 | 7 | 8 | 9 | 10 | 11 | ... >>